Fort Lewis, WA
on Monday, December 24, 2012

Monday
Previous Day Next Day
Daily Summary
 ActualAverage (KOLM)Record (KOLM)
Temperature
Mean Temperature °F 38°F  
Max Temperature 42°F 44°F 60°F (2005)
Min Temperature 35°F 32°F 11°F (1990)
Degree Days
Heating Degree Days 26 27  
Month to date heating degree days 637  
Since 1 July heating degree days 2082  
Cooling Degree Days 0 0  
Month to date cooling degree days 0  
Year to date cooling degree days 106  
Moisture
Dew Point 38°F   
Average Humidity 97    
Maximum Humidity 100    
Minimum Humidity 87    
Precipitation
Precipitation 0.02 in 0.23 in 1.41 in (1949)
Month to date precipitation 5.85  
Year to date precipitation 48.39  
Wind
Wind Speed 6 mph   
Max Wind Speed 10 mph   
Max Gust Speed mph   
Visibility 8 miles   
Events     

Key: T is trace of precipitation, MM is missing value
Source: NWS Daily Summary
Time(PST)TemperatureDew PointHumidity Pressure Visibility Wind DirectionWind SpeedGust SpeedPrecipitationEvents Conditions
12:03 AM 37.4°F 35.6°F 93% 29.83 in 10.0 miles SSE 6.9 mph - N/A   Mostly Cloudy
12:08 AM 37.4°F 35.6°F 93% 29.83 in 10.0 miles South 6.9 mph - N/A   Mostly Cloudy
12:28 AM 37.4°F 37.4°F 100% 29.84 in 10.0 miles South 5.8 mph - N/A   Overcast
12:53 AM 37.4°F 37.4°F 100% 29.85 in 10.0 miles SSE 8.1 mph - N/A   Overcast
12:58 AM 38.1°F 36.9°F 95% 29.87 in 10.0 miles SSE 9.2 mph - N/A   Overcast
1:43 AM 37.4°F 35.6°F 93% 29.87 in 10.0 miles South 8.1 mph - N/A   Overcast
1:58 AM 37.8°F 36.5°F 95% 29.90 in 10.0 miles SSE 10.4 mph - N/A   Overcast
2:23 AM 37.4°F 35.6°F 93% 29.89 in 10.0 miles SSE 9.2 mph - N/A   Scattered Clouds
2:58 AM 36.7°F 35.6°F 96% 29.93 in 10.0 miles SSE 9.2 mph - N/A   Scattered Clouds
3:08 AM 37.4°F 35.6°F 93% 29.91 in 10.0 miles SSE 9.2 mph - N/A   Mostly Cloudy
3:18 AM 35.6°F 35.6°F 100% 29.92 in 10.0 miles SSE 10.4 mph - N/A   Scattered Clouds
3:58 AM 36.1°F 35.2°F 97% 29.95 in 10.0 miles SSE 10.4 mph - N/A   Scattered Clouds
4:58 AM 36.3°F 35.6°F 97% 29.98 in 10.0 miles South 6.9 mph - N/A   Scattered Clouds
5:38 AM 35.6°F 35.6°F 100% 29.98 in 10.0 miles SSE 5.8 mph - N/A   Overcast
5:58 AM 35.6°F 34.9°F 97% 30.01 in 10.0 miles SSE 5.8 mph - N/A   Mostly Cloudy
6:58 AM 37.0°F 36.5°F 98% 30.04 in 10.0 miles West 1.2 mph - N/A   Overcast
7:08 AM 37.4°F 37.4°F 100% 30.02 in 10.0 miles Calm Calm - N/A   Overcast
7:28 AM 37.4°F 37.4°F 100% 30.03 in 10.0 miles NNW 2.3 mph - N/A   Overcast
7:58 AM 37.4°F 36.9°F 98% 30.07 in 10.0 miles SW 2.3 mph - N/A   Overcast
8:23 AM 37.4°F 37.4°F 100% 30.06 in 2.5 miles Calm Calm - N/A   Overcast
8:28 AM 37.4°F 37.4°F 100% 30.07 in 3.0 miles SSW 3.5 mph - N/A   Overcast
8:49 AM 39.2°F 39.2°F 100% 30.07 in 8.0 miles SE 3.5 mph - N/A   Overcast
8:58 AM 38.7°F 38.5°F 99% 30.10 in 5.0 miles SE 3.5 mph - N/A   Overcast
9:13 AM 39.2°F 39.2°F 100% 30.09 in 10.0 miles SSE 4.6 mph - N/A   Overcast
9:58 AM 39.7°F 39.4°F 99% 30.13 in 10.0 miles South 6.9 mph - N/A   Overcast
10:01 AM 39.2°F 39.2°F 100% 30.12 in 8.0 miles South 4.6 mph - N/A   Overcast
10:06 AM 39.2°F 39.2°F 100% 30.12 in 5.0 miles South 4.6 mph - N/A   Overcast
10:11 AM 39.2°F 39.2°F 100% 30.12 in 4.0 miles SSE 4.6 mph - N/A   Overcast
10:27 AM 41.0°F 39.2°F 93% 30.12 in 10.0 miles SSE 4.6 mph - N/A   Overcast
10:42 AM 41.0°F 39.2°F 93% 30.13 in 10.0 miles SSE 5.8 mph - N/A   Overcast
10:47 AM 41.0°F 39.2°F 93% 30.13 in 10.0 miles South 5.8 mph - N/A   Overcast
10:58 AM 40.5°F 39.9°F 98% 30.15 in 10.0 miles South 5.8 mph - N/A   Overcast
11:13 AM 41.0°F 39.2°F 93% 30.13 in 10.0 miles South 6.9 mph - N/A   Overcast
11:43 AM 41.0°F 41.0°F 100% 30.13 in 10.0 miles SSE 5.8 mph - N/A   Overcast
11:54 AM 41.0°F 41.0°F 100% 30.14 in 8.0 miles South 5.8 mph - N/A   Overcast
11:58 AM 41.4°F 40.3°F 96% 30.16 in 7.0 miles South 5.8 mph - N/A   Overcast
12:33 PM 41.0°F 41.0°F 100% 30.14 in 10.0 miles SSE 8.1 mph - N/A   Overcast
12:38 PM 41.0°F 41.0°F 100% 30.14 in 10.0 miles South 9.2 mph - N/A   Overcast
12:43 PM 41.0°F 41.0°F 100% 30.15 in 10.0 miles South 8.1 mph - N/A   Overcast
12:58 PM 41.5°F 40.5°F 96% 30.17 in 9.0 miles South 5.8 mph - 0.01 in   Overcast
1:08 PM 41.0°F 41.0°F 100% 30.15 in 7.0 miles SSE 5.8 mph - N/A   Overcast
1:18 PM 41.0°F 41.0°F 100% 30.15 in 6.0 miles South 5.8 mph - N/A   Overcast
1:38 PM 41.0°F 39.2°F 93% 30.15 in 7.0 miles South 5.8 mph - N/A   Overcast
1:53 PM 42.8°F 41.0°F 93% 30.15 in 10.0 miles South 6.9 mph - N/A   Overcast
1:58 PM 41.9°F 40.5°F 95% 30.17 in 10.0 miles South 8.1 mph - N/A   Overcast
2:15 PM 42.8°F 41.0°F 93% 30.15 in 10.0 miles SSE 5.8 mph - N/A   Overcast
2:25 PM 42.8°F 41.0°F 93% 30.15 in 10.0 miles South 6.9 mph - N/A   Overcast
2:58 PM 42.1°F 39.7°F 91% 30.17 in 10.0 miles SSE 6.9 mph - 0.01 in   Mostly Cloudy
3:03 PM 42.8°F 39.2°F 87% 30.15 in 10.0 miles SSE 5.8 mph - N/A   Scattered Clouds
3:58 PM 41.4°F 39.7°F 94% 30.17 in 10.0 miles East 1.2 mph - N/A   Overcast
4:58 PM 39.7°F 38.8°F 97% 30.17 in 10.0 miles SE 5.8 mph - N/A   Overcast
5:58 PM 37.9°F 37.0°F 97% 30.16 in 10.0 miles SE 3.5 mph - N/A   Mostly Cloudy
6:28 PM 37.4°F 37.4°F 100% 30.13 in 7.0 miles SE 2.3 mph - N/A   Scattered Clouds
6:33 PM 35.6°F 35.6°F 100% 30.13 in 2.5 miles SE 2.3 mph - N/A   Partly Cloudy
6:38 PM 35.6°F 35.6°F 100% 30.12 in 1.8 miles ESE 2.3 mph - N/A   Partly Cloudy
6:43 PM 35.6°F 35.6°F 100% 30.12 in 1.5 miles SE 2.3 mph - N/A   Partly Cloudy
6:48 PM 35.6°F 35.6°F 100% 30.12 in 1.2 miles SE 3.5 mph - N/A   Partly Cloudy
6:53 PM 35.6°F 35.6°F 100% 30.12 in 1.0 miles SSE 3.5 mph - N/A   Clear
6:58 PM 35.2°F 34.9°F 99% 30.14 in 1.0 miles SE 2.3 mph - N/A   Clear
7:03 PM 35.6°F 35.6°F 100% 30.11 in 0.8 miles SE 3.5 mph - N/A   Partly Cloudy
7:08 PM 35.6°F 35.6°F 100% 30.12 in 1.2 miles SE 2.3 mph - N/A   Scattered Clouds
7:23 PM 35.6°F 33.8°F 93% 30.12 in 2.5 miles SSE 4.6 mph - N/A   Scattered Clouds
7:28 PM 35.6°F 35.6°F 100% 30.12 in 4.0 miles SSE 3.5 mph - N/A   Scattered Clouds
7:33 PM 35.6°F 35.6°F 100% 30.11 in 5.0 miles SE 4.6 mph - N/A   Partly Cloudy
7:38 PM 35.6°F 35.6°F 100% 30.11 in 10.0 miles East 3.5 mph - N/A   Scattered Clouds
7:58 PM 35.1°F 34.7°F 99% 30.12 in 10.0 miles ESE 1.2 mph - N/A   Mostly Cloudy
8:58 PM 35.6°F 34.5°F 96% 30.11 in 10.0 miles SE 3.5 mph - N/A   Overcast
9:58 PM 35.4°F 33.8°F 94% 30.11 in 10.0 miles East 2.3 mph - N/A   Overcast
10:58 PM 35.6°F 33.8°F 93% 30.08 in 10.0 miles ESE 2.3 mph - N/A   Clear
11:58 PM 36.0°F 33.6°F 91% 30.05 in 10.0 miles ESE 1.2 mph - N/A   Scattered Clouds
Moon Phase
Dec. 24 Dec. 28 Jan. 04 Jan. 11 Jan. 18
Sunrise:07:55 AM (PST) Moon Rise:02:00 PM (PST)
Sunset:04:25 PM (PST) Moon Set:04:33 AM (PST)

Copyright © 2014 The Weather Underground, Inc.